Weather History for VABB - February, 2013

Change the Weather History Date:

Sunday, February 17, 2013

  Actual Average Record
Temperature  
Mean Temperature 71 °F -  
Max Temperature 82 °F 88 °F 93 °F (2002)
Min Temperature 60 °F 70 °F 59 °F (2014)
Cooling Degree Days 6    
Growing Degree Days 21 (Base 50)    
Moisture  
Dew Point 56 °F    
Average Humidity 53    
Maximum Humidity 76    
Minimum Humidity 29    
Precipitation  
Precipitation 0.00 in - - ()
Sea Level Pressure  
Sea Level Pressure 29.85 in    
Wind  
Wind Speed 5 mph ()    
Max Wind Speed 13 mph    
Max Gust Speed -    
Visibility 2.4 miles    
Events      
Averages and records for this station are not official NWS values.
T = Trace of Precipitation, MM = Missing Value Source: Averaged Metar Reports

Daily Weather History Graph

Daily Weather History Graph

Search for Another Location

Airport or City:

Trip Planner

Search our weather history database for the weather conditions in past years. The results will help you decide how hot, cold, wet, or windy it might be!

Date:

Astronomy

Feb. 17, 2013 Rise Set
Actual Time 7:05 AM IST 6:39 PM IST
Civil Twilight 6:43 AM IST 7:01 PM IST
Nautical Twilight 6:17 AM IST 7:27 PM IST
Astronomical Twilight 5:52 AM IST 7:53 PM IST
Moon 11:42 AM IST (2/17) No Moon Set
Length of Visible Light 12h 18m
Length of Day
11h 33m
Waxing Crescent, 44% of the Moon is Illuminated
Feb 17
Waxing Crescent
Feb 18
First Quarter
Feb 26
Full
Mar 5
Last Quarter
Mar 12
New

Hourly Weather History & Observations

Time (IST) Temp. Heat Index Dew Point Humidity Pressure Visibility Wind Dir Wind Speed Gust Speed Precip Events Conditions
12:10 AM 71.6 °F - 53.6 °F 53% 29.86 in 2.5 mi Calm Calm - N/A   Smoke
12:40 AM 73.4 °F - 53.6 °F 50% 29.86 in 2.5 mi NNW 3.5 mph - N/A   Smoke
1:10 AM 73.4 °F - 55.4 °F 53% 29.83 in 2.5 mi Calm Calm - N/A   Smoke
1:40 AM 71.6 °F - 55.4 °F 57% 29.83 in 2.2 mi Calm Calm - N/A   Smoke
2:10 AM 71.6 °F - 55.4 °F 57% 29.83 in - Calm Calm - N/A   Smoke
2:30 AM 63 °F - 55 °F 69% 29.82 in 1 mi Calm Calm - -   Haze
3:10 AM 71.6 °F - 57.2 °F 60% 29.80 in 2.2 mi East 4.6 mph - N/A   Smoke
3:40 AM 69.8 °F - 55.4 °F 60% 29.80 in 2.2 mi East 5.8 mph - N/A   Smoke
4:10 AM 69.8 °F - 55.4 °F 60% 29.80 in 2.2 mi East 5.8 mph - N/A   Smoke
4:40 AM 69.8 °F - 55.4 °F 60% 29.80 in 2.2 mi NE 5.8 mph - N/A   Smoke
5:10 AM 69.8 °F - 55.4 °F 60% 29.80 in - ESE 3.5 mph - N/A   Smoke
5:30 AM 63 °F - 57 °F 76% 29.82 in 1 mi Calm Calm - -   Haze
5:40 AM 68.0 °F - 55.4 °F 64% 29.83 in - ESE 5.8 mph - N/A   Smoke
6:40 AM 68.0 °F - 55.4 °F 64% 29.86 in 1.7 mi ESE 6.9 mph - N/A   Smoke
7:10 AM 68.0 °F - 55.4 °F 64% 29.86 in 1.6 mi ESE 5.8 mph - N/A   Smoke
7:40 AM 68.0 °F - 55.4 °F 64% 29.86 in 1.4 mi ESE 5.8 mph - N/A   Smoke
8:10 AM 69.8 °F - 55.4 °F 60% 29.89 in 1.4 mi East 4.6 mph - N/A   Smoke
8:30 AM 66 °F - 57 °F 65% 29.89 in 1 mi Calm Calm - -   Smoke
8:40 AM 71.6 °F - 57.2 °F 60% 29.89 in 1.4 mi East 5.8 mph - N/A   Smoke
9:10 AM 73.4 °F - 57.2 °F 57% 29.89 in 1.6 mi SE 6.9 mph - N/A   Smoke
10:10 AM 77.0 °F - 59.0 °F 54% 29.92 in 1.9 mi ESE 6.9 mph - N/A   Smoke
10:40 AM 77.0 °F - 59.0 °F 54% 29.92 in 1.9 mi ENE 5.8 mph - N/A   Smoke
11:10 AM 78.8 °F - 59.0 °F 51% 29.92 in 2.5 mi NE 6.9 mph - N/A   Smoke
11:30 AM 81 °F - 55 °F 30% 29.91 in 1 mi ESE 4.6 mph - -   Smoke
12:10 PM 80.6 °F 80.5 °F 55.4 °F 42% 29.89 in 3.1 mi ENE 8.1 mph - N/A   Smoke
12:40 PM 80.6 °F 81.1 °F 59.0 °F 48% 29.86 in 3.1 mi WNW 5.8 mph - N/A   Smoke
1:10 PM 80.6 °F 81.1 °F 59.0 °F 48% 29.86 in 3.1 mi WNW 12.7 mph - N/A   Smoke
1:40 PM 78.8 °F - 57.2 °F 47% 29.86 in 3.7 mi West 12.7 mph - N/A   Unknown
2:10 PM 78.8 °F - 57.2 °F 47% 29.83 in 3.7 mi WNW 12.7 mph - N/A   Unknown
2:30 PM 81 °F - 56 °F 32% 29.83 in 1 mi NW 6.9 mph - -   Smoke
2:40 PM 80.6 °F 80.8 °F 57.2 °F 45% 29.83 in 3.7 mi WNW 12.7 mph - N/A   Unknown
3:10 PM 78.8 °F - 59.0 °F 51% 29.80 in 3.7 mi WNW 11.5 mph - N/A   Unknown
3:40 PM 80.6 °F 81.1 °F 59.0 °F 48% 29.80 in 3.7 mi WNW 12.7 mph - N/A   Unknown
4:10 PM 78.8 °F - 59.0 °F 51% 29.80 in 3.7 mi WNW 12.7 mph - N/A   Unknown
4:40 PM 78.8 °F - 60.8 °F 54% 29.80 in 3.7 mi NNW 10.4 mph - N/A   Unknown
5:10 PM 78.8 °F - 60.8 °F 54% 29.80 in 3.7 mi NW 8.1 mph - N/A   Unknown
5:30 PM 79 °F - 53 °F 29% 29.81 in 1 mi North 5.8 mph - -   Smoke
5:40 PM 78.8 °F - 60.8 °F 54% 29.80 in 3.7 mi NW 6.9 mph - N/A   Unknown
6:10 PM 77.0 °F - 59.0 °F 54% 29.80 in 3.7 mi NW 9.2 mph - N/A   Unknown
7:10 PM 75.2 °F - 55.4 °F 50% 29.83 in 3.1 mi NW 9.2 mph - N/A   Smoke
7:40 PM 75.2 °F - 55.4 °F 50% 29.83 in 3.1 mi NNW 8.1 mph - N/A   Smoke
8:10 PM 75.2 °F - 53.6 °F 47% 29.86 in 3.1 mi NNW 10.4 mph - N/A   Smoke
8:30 PM 73 °F - 54 °F 42% 29.85 in 1 mi North 9.2 mph - -   Smoke
8:40 PM 73.4 °F - 53.6 °F 50% 29.86 in 3.1 mi NW 6.9 mph - N/A   Smoke
9:10 PM 75.2 °F - 53.6 °F 47% 29.86 in 2.5 mi NNW 5.8 mph - N/A   Smoke
9:40 PM 73.4 °F - 51.8 °F 47% 29.89 in 2.5 mi NNW 3.5 mph - N/A   Smoke
10:10 PM 73.4 °F - 51.8 °F 47% 29.89 in 2.5 mi NNW 8.1 mph - N/A   Smoke
10:40 PM 71.6 °F - 51.8 °F 50% 29.89 in 2.5 mi NNW 5.8 mph - N/A   Smoke
11:10 PM 71.6 °F - 53.6 °F 53% 29.89 in 2.5 mi NNW 5.8 mph - N/A   Smoke
11:30 PM 66 °F - 57 °F 65% 29.89 in 1 mi Calm Calm - -   Smoke
11:40 PM 71.6 °F - 53.6 °F 53% 29.89 in 2.5 mi NE 4.6 mph - N/A   Smoke